EW3708 Weather Reports


Display with metric or nautical units.
time (UTC)temp
F
wind
direction
speed
MPH
gust
MPH
rain 1hr
in
rain 24hr
in
rain mn
in
humidity
%
barometer
mb
20260901160044 74 236 0.0 2.0 0.00 0.05 0.01 89 1014.2
20260901154540 74 236 0.0 2.0 0.00 0.05 0.01 90 1014.3
20260901153038 73 236 0.0 2.0 0.00 0.05 0.01 91 1014.4
20260901151529 73 225 1.0 3.0 0.00 0.05 0.01 92 1014.5
20260901150025 72 198 0.0 2.0 0.01 0.05 0.01 92 1014.4
20260901144533 72 100 0.0 1.0 0.01 0.05 0.01 92 1014.4
20260901143023 72 100 0.0 1.0 0.01 0.05 0.01 92 1014.4
20260901141513 72 266 0.0 2.0 0.01 0.05 0.01 91 1014.6
20260901140012 72 286 0.0 3.0 0.00 0.04 0.00 91 1014.7
20260901134508 72 306 0.0 2.0 0.00 0.04 0.00 93 1014.6
20260901133006 71 104 0.0 3.0 0.00 0.04 0.00 94 1014.6
20260901131506 70 151 1.0 2.0 0.00 0.04 0.00 95 1014.6
20260901130100 70 15 0.0 3.0 0.00 0.04 0.00 95 1014.6
20260901124559 69 70 0.0 2.0 0.00 0.04 0.00 95 1014.7
20260901123056 69 165 0.0 1.0 0.00 0.04 0.00 95 1014.8
20260901121609 68 165 0.0 1.0 0.00 0.04 0.00 95 1014.9
20260901120104 68 165 0.0 1.0 0.00 0.04 0.00 95 1014.9
20260901114559 67 165 0.0 0.0 0.00 0.04 0.00 95 1014.9
20260901113051 67 165 0.0 0.0 0.00 0.04 0.00 94 1014.7
20260901111553 67 165 0.0 0.0 0.00 0.04 0.00 95 1014.6
20260901110050 66 165 0.0 2.0 0.00 0.04 0.00 94 1014.9
20260901104547 67 165 0.0 1.0 0.00 0.04 0.00 94 1014.6
20260901103046 67 165 0.0 0.0 0.00 0.04 0.00 94 1014.9
20260901101551 67 165 0.0 0.0 0.00 0.04 0.00 94 1014.9
20260901100044 66 165 0.0 1.0 0.00 0.04 0.00 94 1015.0
20260901094543 66 165 0.0 1.0 0.00 0.04 0.00 94 1015.1
20260901093109 66 165 0.0 0.0 0.00 0.04 0.00 93 1015.1
20260901091558 66 165 0.0 0.0 0.00 0.04 0.00 93 1015.0
20260901090042 66 165 0.0 0.0 0.00 0.04 0.00 93 1015.0
20260901084540 66 165 0.0 0.0 0.00 0.04 0.00 94 1015.1
20260901083044 66 165 0.0 0.0 0.00 0.04 0.00 93 1015.2
20260901081537 66 165 0.0 1.0 0.00 0.04 0.00 93 1015.4
20260901080043 66 165 0.0 0.0 0.00 0.04 0.00 93 1015.2
20260901074536 66 165 0.0 0.0 0.00 0.04 0.00 93 1015.4
20260901073036 66 165 0.0 0.0 0.00 0.04 0.00 92 1015.6
20260901071535 66 165 0.0 0.0 0.00 0.04 0.00 92 1015.4
20260901070036 66 165 0.0 0.0 0.00 0.04 0.00 92 1015.5
20260901064537 67 165 0.0 0.0 0.00 0.04 0.00 92 1015.5
20260901063029 67 165 0.0 0.0 0.00 0.04 0.00 93 1015.8
20260901061528 67 165 0.0 0.0 0.00 0.04 0.00 93 1015.8
20260901060026 67 165 0.0 0.0 0.00 0.04 0.00 92 1016.0
20260901054525 67 165 0.0 0.0 0.00 0.04 0.00 92 1015.9
20260901053025 67 165 0.0 0.0 0.00 0.04 0.00 92 1016.1
20260901051522 67 165 0.0 1.0 0.00 0.04 0.00 92 1016.3
20260901050021 68 165 0.0 1.0 0.00 0.04 0.00 92 1016.5
20260901044520 68 153 0.0 2.0 0.00 0.04 0.00 92 1016.4
20260901043020 68 151 0.0 0.0 0.00 0.04 0.00 92 1016.4
20260901041518 68 151 0.0 2.0 0.00 0.04 0.00 92 1016.4
20260901040020 68 151 0.0 2.0 0.00 0.04 0.00 92 1016.3
20260901034516 67 351 0.0 2.0 0.00 0.04 0.04 92 1016.3
20260901033033 67 171 0.0 3.0 0.00 0.04 0.04 92 1016.3
20260901031514 67 196 0.0 2.0 0.00 0.04 0.04 92 1016.6
20260901030015 67 167 0.0 0.0 0.00 0.04 0.04 92 1016.6
20260901024511 67 160 0.0 0.0 0.00 0.04 0.04 93 1016.8
20260901023011 67 160 0.0 0.0 0.00 0.04 0.04 92 1017.0
20260901021517 67 160 0.0 0.0 0.00 0.04 0.04 92 1017.1
20260901020011 67 160 0.0 0.0 0.00 0.04 0.04 92 1017.2
20260901014510 67 160 0.0 0.0 0.00 0.04 0.04 92 1017.1
20260901013009 67 160 0.0 0.0 0.00 0.04 0.04 92 1017.2
20260901011509 67 160 0.0 0.0 0.00 0.04 0.04 92 1017.0
20260901010009 67 159 0.0 0.0 0.00 0.04 0.04 92 1016.8
20260901004508 67 159 0.0 0.0 0.00 0.04 0.04 91 1016.9
20260901003011 67 160 0.0 0.0 0.00 0.04 0.04 91 1016.8
20260901001514 67 160 0.0 0.0 0.00 0.04 0.04 91 1016.6
20260901000006 68 160 0.0 0.0 0.00 0.04 0.04 90 1016.8
20260831234515 68 160 0.0 0.0 0.00 0.05 0.04 90 1017.0
20260831233004 68 159 0.0 0.0 0.00 0.05 0.04 90 1016.9
20260831231503 68 160 0.0 0.0 0.00 0.05 0.04 90 1016.9
20260831230002 68 160 0.0 1.0 0.00 0.05 0.04 90 1017.1
20260831224600 68 160 0.0 1.0 0.00 0.05 0.04 90 1017.2
20260831223058 68 159 0.0 2.0 0.00 0.05 0.04 89 1017.3
20260831221604 69 160 0.0 3.0 0.00 0.05 0.04 89 1017.4
20260831220124 69 159 0.0 3.0 0.00 0.05 0.04 89 1017.3
20260831214557 69 182 1.0 3.0 0.00 0.05 0.04 90 1017.3
20260831213059 68 166 0.0 2.0 0.00 0.05 0.04 90 1017.3
20260831211554 68 166 1.0 3.0 0.00 0.05 0.04 90 1017.5
20260831210054 68 165 0.0 3.0 0.00 0.05 0.04 90 1017.5
20260831204558 68 198 0.0 0.0 0.00 0.05 0.04 90 1017.6
20260831203111 68 198 0.0 2.0 0.00 0.05 0.04 90 1017.6
20260831201551 68 198 0.0 2.0 0.01 0.05 0.04 90 1017.7
20260831200054 68 198 0.0 0.0 0.01 0.05 0.04 91 1017.8
20260831194548 68 198 0.0 0.0 0.01 0.05 0.04 91 1018.0
20260831193050 68 198 0.0 1.0 0.02 0.05 0.04 90 1018.1
20260831191548 68 198 0.0 1.0 0.01 0.04 0.03 89 1018.3
20260831190057 68 198 0.0 1.0 0.02 0.04 0.03 90 1018.7
20260831184545 67 202 0.0 2.0 0.03 0.04 0.03 90 1018.7
20260831183045 67 204 0.0 0.0 0.02 0.03 0.02 89 1018.9
20260831181554 67 204 0.0 0.0 0.02 0.03 0.02 87 1019.1
20260831180044 68 204 0.0 2.0 0.01 0.02 0.01 86 1019.1
20260831174550 69 182 1.0 2.0 0.00 0.01 0.00 83 1019.2
20260831173043 69 182 0.0 3.0 0.00 0.01 0.00 81 1019.2
20260831171544 69 182 0.0 2.0 0.00 0.01 0.00 80 1019.1
20260831170042 69 182 0.0 2.0 0.00 0.01 0.00 79 1019.1
20260831164541 69 182 1.0 3.0 0.00 0.01 0.00 80 1019.2
20260831163043 69 182 0.0 1.0 0.00 0.01 0.00 79 1019.2
20260831161540 70 182 0.0 3.0 0.00 0.01 0.00 76 1019.1